Vue régionale

METAR et TAF

Vendredi 27 janvier 2023 à 01h45

Visibilités horizontales observées à différents aéroports. Les observations (METAR) et prévisions aéronautiques (TAF) complètes sont disponibles en cliquant sur l’icône correspondante.

  • Luxemburg (ELLX)

    Taf: TAF ELLX 262300Z NIL=

    Metar: METAR ELLX 270020Z 33004KT 6000 -RADZ SCT007 BKN010 01/01 Q1020 NOSIG=

  • Spangdahlem (ETAD)

    Taf: TAF AMD ETAD 262300Z 2623/2803 02006KT 8000 BR OVC010 620402 QNH3010INS TEMPO 2623/2703 3200 -RASN BR OVC007 BECMG 2702/2703 03010G15KT 9999 NSW OVC006 QNH3010INS BECMG 2708/2709 04010G15KT 9999 OVC010 QNH3018INS BECMG 2714/2715 02008KT 9999 BKN015 QNH3018INS BECMG 2718/2719 03009KT 9999 OVC007 QNH3022INS TX01/2704Z TN00/2721Z=

    Metar: METAR ETAD 262355Z 01006KT 9999 OVC009 01/M02 A3009 RMK AO2A CIG 007 RWY23 SLP195 60000 4/000 T00141017 10014 21005 57009 FZRANO $=

  • Metz/Nancy (LFJL)

    Taf: TAF LFJL 262300Z 2700/2724 VRB03KT 6000 FEW008 OVC018 TEMPO 2700/2709 2500 -SN BR OVC002 PROB40 TEMPO 2700/2709 4000 -FZDZ BR OVC004 FM270900 05010KT 9999 OVC013 PROB40 2711/2718 BKN020 PROB40 TEMPO 2720/2724 BKN008=

    Metar: METAR LFJL 270030Z AUTO 23003KT 3900 BR OVC003 M01/M02 Q1020 TEMPO -FZDZ=

  • Saarbrücken/Intl (EDDR)

    Taf: TAF AMD EDDR 270007Z 2700/2724 33003KT 6000 SCT002 OVC006 TEMPO 2700/2708 1200 -SN OVC002 PROB30 TEMPO 2700/2708 0600 -FZDZ FZFG OVC001 BECMG 2701/2703 03005KT PROB30 TEMPO 2708/2712 4000 -SG BECMG 2708/2710 06010KT BECMG 2710/2714 BKN015 BECMG 2715/2717 05005KT BECMG 2719/2721 OVC010 TEMPO 2721/2724 4000 -SN OVC006=

    Metar: METAR EDDR 270020Z AUTO 25001KT 2000 -SN BR BKN001 M01/M02 Q1019 REFZDZ=

  • Hahn (EDFH)

    Taf: TAF EDFH 262300Z 2700/2724 04007KT 3000 -SN BR OVC003 TEMPO 2700/2712 0300 FZFG VV001 BECMG 2712/2714 6000 SCT003 BKN005 TEMPO 2714/2718 3000 BR OVC003 BECMG 2718/2720 3000 BR OVC003 TEMPO 2720/2724 1200 -SN OVC001=

    Metar: METAR EDFH 270020Z 36009KT 0900 R03/P2000N -SN FZFG BKN001 M00/M00 Q1019=

  • Ramstein (ETAR)

    Taf: TAF AMD ETAR 270014Z 2700/2724 04006KT 5000 -SN BR BKN005 OVC020 620053 QNH3011INS TEMPO 2700/2706 3200 BKN007 620073 BECMG 2707/2708 05009KT 9999 NSW BKN015 610153 QNH3016INS TX00/2709Z TNM02/2703Z=

    Metar: METAR ETAR 262355Z 00000KT 3000 BR OVC006 M01/M02 A3011 RMK AO2A SNE02SNB09E28SNB28E38 SLP209 P0000 60000 4/000 T10151021 11013 21017 57009 $=

  • Nancy/Ochey (LFSO)

    Taf: TAF LFSO 262000Z NIL=

    Metar: METAR LFSO 270030Z AUTO 00000KT 4700 BR OVC004 M02/M02 Q1019=

  • Liège Bierset (EBLG)

    Taf: TAF EBLG 262300Z 2700/2806 01008KT 9999 BKN025 BECMG 2700/2702 3000 BR BKN003 PROB30 2702/2709 0800 FZFG BKN002 BECMG 2711/2713 8000 NSW BKN015 PROB40 2800/2806 2000 BR BKN003 PROB30 2801/2806 0600 FZFG BKN001=

    Metar: METAR EBLG 270020Z 35007KT 9999 FEW022 BKN032 02/01 Q1023 NOSIG=

  • Saint-Dizier (LFSI)

    Taf: TAF LFSI 262000Z 2621/2721 30003KT 4000 BR BKN005 TEMPO 2621/2707 1500 -DZSN BKN001 BECMG 2708/2711 9999 NSW SCT015=

    Metar: METAR LFSI 270030Z AUTO 00000KT 4900 BR OVC018 01/00 Q1021=

  • Maastricht/Zuid Limburg (EHBK)

    Taf: TAF EHBK 262317Z 2700/2806 02008KT 9999 OVC025 BECMG 2701/2704 4000 BR BKN006 PROB30 2704/2708 8000 NSW BKN025 PROB30 2708/2714 1200 BKN001 BECMG 2714/2717 8000 NSW BKN010 BECMG 2802/2805 BKN018 TEMPO 2802/2806 6000 BKN012=

    Metar: METAR EHBK 270025Z AUTO 01007KT 340V040 9999 FEW013/// BKN016/// OVC020/// 04/03 Q1023=

  • Köln/Köln-Bonn (EDDK)

    Taf: TAF EDDK 262300Z 2700/2806 36006KT 2000 BR BKN003 TEMPO 2700/2703 0500 FG OVC001 BECMG 2703/2706 4000 BR BKN007 TEMPO 2706/2711 2000 -DZ BR BKN003 BECMG 2711/2714 7000 BKN012 TEMPO 2714/2720 4000 -DZ BR BKN008 BECMG 2720/2723 BKN015=

    Metar: METAR EDDK 270020Z AUTO 34003KT 2500 0800 R32R/1900N R06/1700U BCFG SCT011 01/01 Q1022 TEMPO 3500=

  • Charleroi (EBCI)

    Taf: TAF EBCI 262300Z 2700/2806 36008KT 9999 BKN025 BECMG 2703/2705 BKN004 PROB30 TEMPO 2704/2710 3000 -DZ BECMG 2711/2713 BKN015 PROB40 2800/2806 2000 BR BKN003 PROB30 2801/2806 0600 FZFG BKN001=

    Metar: METAR EBCI 270020Z 35007KT 9999 BKN025 03/01 Q1023 NOSIG=

  • Wiesbaden (ETOU)

    Taf: TAF AMD ETOU 262046Z 2620/2719 02009KT 6000 -SN BR SCT004 BKN010 OVC005 620202 QNH3014INS TEMPO 2722/2705 BKN003 BECMG 2709/2710 35009KT 9999 SCT008 OVC015 QNH3020INS BECMG 2717/2718 33006KT 9999 BKN020 OVC030 QNH3024INS TX00/2716Z TNM03/2709Z LAST NO AMDS AFT 2621=

    Metar: METAR ETOU 270000Z NIL=

  • Karlsruhe/Baden-Baden (EDSB)

    Taf: TAF EDSB 262300Z 2700/2724 35005KT 9999 FEW010 OVC020 PROB30 TEMPO 2700/2703 OVC008 BECMG 2704/2706 05010KT TEMPO 2710/2715 04015KT PROB30 TEMPO 2720/2724 BKN014=

    Metar: METAR EDSB 270020Z AUTO 02003KT 9999 OVC020/// M01/M03 Q1020=

  • Chalons/Vatry (LFOK)

    Taf: TAF LFOK 262300Z 2700/2724 01013KT 8000 BKN020 PROB30 TEMPO 2700/2710 BKN007 OVC013 BECMG 2710/2712 OVC013 BECMG 2712/2714 BKN020 BECMG 2714/2717 OVC011 PROB30 TEMPO 2717/2724 BKN020=

    Metar: METAR LFOK 270030Z AUTO 35012KT 9999 BKN022 OVC033 03/02 Q1021 TEMPO BKN007 OVC013=

  • Frankfurt/Main (EDDF)

    Taf: TAF EDDF 262300Z 2700/2806 22004KT 8000 SCT005 OVC012 TEMPO 2700/2703 3500 -SN BR BKN003 PROB40 TEMPO 2700/2703 2000 FZDZ BECMG 2701/2703 03005KT TEMPO 2703/2709 4500 -SG OVC007 PROB30 TEMPO 2703/2707 -FZDZ BKN004 BECMG 2710/2712 03010KT BKN015 PROB30 TEMPO 2718/2721 4000 -SN BKN012 TEMPO 2721/2806 BKN012=

    Metar: METAR EDDF 270020Z AUTO 29002KT 3600 BR BKN005 BKN018 M00/M01 Q1021 NOSIG=

  • Brüssel (EBBR)

    Taf: TAF EBBR 262300Z 2700/2806 36007KT 9999 BKN025 BECMG 2702/2704 BKN008 PROB30 TEMPO 2704/2710 3000 -DZ BKN004 BECMG 2710/2712 BKN015 PROB40 2800/2806 3000 BR BKN004 PROB30 2801/2806 0800 FZFG BKN001=

    Metar: METAR EBBR 270020Z 36008KT 9999 BKN024 05/02 Q1024 NOSIG=

  • Düsseldorf (EDDL)

    Taf: TAF EDDL 262300Z 2700/2806 02007KT 9999 BKN020 TEMPO 2700/2703 BKN012 BECMG 2703/2706 BKN007 TEMPO 2706/2715 3500 -DZ BR BKN004 TEMPO 2715/2806 BKN012 PROB30 TEMPO 2715/2806 BKN015=

    Metar: METAR EDDL 270020Z AUTO 36007KT 9999 OVC022 04/02 Q1023 NOSIG=

  • Luxeuil (LFSX)

    Taf: TAF LFSX 262000Z NIL=

    Metar: METAR LFSX 270030Z AUTO 36004KT CAVOK M02/M05 Q1019=

  • Eindhoven (EHEH)

    Taf: TAF EHEH 262349Z 2700/2806 36009KT 9999 SCT025 BKN030 BECMG 2701/2703 SCT012 BKN018 TEMPO 2702/2712 4000 BR SCT008 BKN012 BECMG 2716/2718 BKN020 BECMG 2721/2723 3000 BR BECMG 2800/2802 VRB02KT 0800 FG PROB40 TEMPO 2800/2806 0400 VV000=

    Metar: METAR EHEH 270025Z AUTO 01009KT 9999 OVC016 05/02 Q1024 WHT=

  • Niederrhein (EDLV)

    Taf: TAF AMD EDLV 262322Z 2623/2718 CNL=

    Metar: METAR EDLV 270020Z AUTO VRB02KT 9999 // FEW016/// OVC022/// 05/03 Q1024=

  • Dortmund/Wickede (EDLW)

    Taf: TAF EDLW 262300Z NIL=

    Metar: METAR EDLW 270020Z AUTO 36004KT 320V040 9999 // OVC012/// 02/02 Q1023=

  • Stuttgart/Echterdingen (EDDS)

    Taf: TAF EDDS 262300Z 2700/2724 36005KT 9999 BKN010 TEMPO 2700/2713 BKN006 PROB30 TEMPO 2703/2710 4000 -SN OVC004 BECMG 2711/2713 BKN015 BECMG 2716/2718 OVC010 TEMPO 2718/2724 4000 -SG OVC008=

    Metar: METAR EDDS 270020Z AUTO 33006KT 9999 BKN006 BKN011 M02/M04 Q1018=

  • Basel-Mühlhausen (LFSB)

    Taf: TAF LFSB 262300Z 2700/2724 34006KT 8000 FEW006 BKN013 OVC025 TEMPO 2700/2709 4000 BR OVC004 PROB30 TEMPO 2700/2706 -FZDZ PROB40 TEMPO 2703/2709 2000 BR OVC002 BECMG 2711/2713 BKN020 PROB40 TEMPO 2721/2724 BKN006=

    Metar: METAR LFSB 270030Z AUTO 34009KT 9999 FEW014 OVC027 M01/M04 Q1019 TEMPO 4000 BR OVC004=

  • Lille (LFQQ)

    Taf: TAF LFQQ 262300Z 2700/2806 01012KT 9999 BKN030 BECMG 2702/2705 OVC008 TEMPO 2705/2712 3000 BR OVC003 PROB40 2715/2721 OVC016 BECMG 2721/2723 OVC005 TEMPO 2723/2806 2000 BR OVC003 PROB40 2801/2806 0500=

    Metar: METAR LFQQ 270030Z AUTO 36009KT 9999 OVC034 06/03 Q1025 BECMG OVC008=

  • Paris/Charles de Gaulle (LFPG)

    Taf: TAF LFPG 262300Z 2700/2806 02010KT 9999 FEW020 BKN030 TX04/2700Z TNM01/2806Z PROB30 TEMPO 2700/2704 BKN012 BECMG 2704/2706 BKN012 PROB40 TEMPO 2706/2714 BKN008 BECMG 2716/2718 BKN006 BECMG 2722/2724 4000 BR BKN003=

    Metar: METAR LFPG 270030Z 36010KT 9999 FEW030 BKN036 04/02 Q1024 NOSIG=

  • Paderborn/Lippstadt (EDLP)

    Taf: TAF EDLP 262300Z 2700/2724 01004KT 0100 FZFG OVC000 BECMG 2700/2702 NSW TEMPO 2700/2703 2000 BR BKN003 BECMG 2703/2706 2000 BR BKN003 TEMPO 2706/2722 0300 -DZ FG OVC001 BECMG 2722/2724 4000 BR BKN006=

    Metar: METAR EDLP 270020Z VRB02KT 0550 R24/0700N FZFG VV/// M00/M01 Q1022=

  • Paris/Le Bourget (LFPB)

    Taf: TAF LFPB 262300Z 2700/2724 02010KT 9999 FEW020 BKN030 PROB30 TEMPO 2700/2704 BKN012 BECMG 2704/2706 BKN012 PROB40 TEMPO 2706/2714 BKN008 BECMG 2716/2718 BKN006 BECMG 2722/2724 4000 BR BKN003=

    Metar: METAR LFPB 270030Z AUTO 35005KT 9999 OVC037 05/02 Q1024 TEMPO BKN012=

  • Rotterdam (EHRD)

    Taf: TAF EHRD 262253Z 2700/2806 01009KT 9999 BKN014 BECMG 2700/2703 04012KT 6000 OVC007 BECMG 2704/2706 9999 FEW014 SCT030 PROB40 TEMPO 2707/2713 BKN012 BECMG 2714/2717 02008KT BECMG 2721/2724 VRB02KT 4000 BR MIFG BECMG 2800/2803 1200 BCFG PROB30 2802/2806 0400 FZFG VV001=

    Metar: METAR EHRD 270025Z AUTO 01007KT 330V050 9999 BKN016/// OVC020/// 06/04 Q1025 NOSIG=

  • Zürich/Kloten (LSZH)

    Taf: TAF LSZH 262325Z 2700/2806 04003KT 9999 FEW014 BKN018 TX01/2714Z TNM01/2706Z TNM01/2806Z PROB30 TEMPO 2703/2709 3500 -SN SCT005 OVC013 PROB30 TEMPO 2708/2716 05010KT=

    Metar: METAR LSZH 270020Z AUTO 04003KT 020V080 9999 BKN015 M01/M03 Q1018 NOSIG=

  • Oostende/Intl (EBOS)

    Taf: TAF EBOS 262300Z 2700/2806 03015KT 9999 BKN025=

    Metar: METAR EBOS 270020Z 03013KT 9999 FEW020 BKN032 06/03 Q1026 NOSIG=

  • Paris/Orly (LFPO)

    Taf: TAF LFPO 262300Z 2700/2806 01010KT 9999 BKN030 TEMPO 2702/2724 BKN012 PROB40 TEMPO 2716/2724 4000 -DZ BKN008 PROB30 TEMPO 2721/2724 BKN004 BECMG 2800/2802 OVC006 TEMPO 2802/2806 BKN003=

    Metar: METAR LFPO 270030Z AUTO 36010KT 9999 FEW019 OVC039 05/02 Q1024 TEMPO BKN012=

  • Beauvais (LFOB)

    Taf: TAF LFOB 262300Z 2700/2724 02012KT 9999 BKN030 BECMG 2703/2705 OVC013 TEMPO 2705/2718 OVC007 BECMG 2718/2721 3000 BR OVC005=

    Metar: METAR LFOB 270030Z AUTO 36011KT 9999 -RA FEW027 BKN036 05/02 Q1025 NOSIG=

  • Münster/Intl (EDDG)

    Taf: TAF EDDG 262300Z 2700/2724 02007KT 9999 BKN015 BECMG 2700/2702 BKN012 BECMG 2702/2705 BKN007 TEMPO 2705/2711 4000 -DZ BR BKN004 BECMG 2711/2714 BKN012 TEMPO 2714/2722 BKN015 TEMPO 2722/2724 4000 BR BKN007=

    Metar: METAR EDDG 270020Z AUTO 04007KT 020V090 9999 OVC011 03/01 Q1024 BECMG BKN008=

  • Illesheim (ETIK)

    Taf: TAF ETIK 262200Z 2622/2804 35006KT 8000 BR OVC009 650103 QNH3009INS BECMG 2702/2703 02006KT 4000 BR OVC005 650083 QNH3009INS BECMG 2706/2707 02006KT 6000 BR OVC008 650083 QNH3010INS BECMG 2711/2712 03006KT 9999 NSW OVC015 650153 QNH3014INS BECMG 2720/2721 03006KT 9999 OVC009 QNH3021INS TXM01/2712Z TNM03/2703Z LAST NO AMDS AFT 2621 NEXT 2706=

    Metar: METAR ETIK 270000Z NIL=

  • Duebendorf (LSMD)

    Taf: TAF LSMD 261625Z 2617/2723 03003KT 9999 OVC017 PROB30 TEMPO 2617/2709 3500 -SN OVC012=

    Metar: METAR LSMD 270020Z AUTO 11004KT 080V150 9999NDV OVC020 M00/M04 Q1018 RMK=

  • Villacoublay (LFPV)

    Taf: TAF LFPV 262000Z 2621/2721 02008KT 9999 SCT016 BKN023 TX03/2718Z TN01/2706Z PROB40 TEMPO 2621/2702 3500 -RADZ PROB40 TEMPO 2622/2706 OVC010 PROB30 TEMPO 2702/2706 OVC006 TEMPO 2719/2721 OVC005 PROB30 TEMPO 2720/2721 OVC003=

    Metar: METAR LFPV 270030Z AUTO 01007KT 9999 OVC034 04/02 Q1024 TEMPO 3500 -RADZ OVC006=

  • Payerne (LSMP)

    Taf: TAF LSMP 261625Z 2617/2723 05007KT 9999 BKN020=

    Metar: METAR LSMP 270020Z AUTO 04009KT 360V060 9999NDV -SHRA FEW015 BKN017 OVC023 M01/M03 Q1017 RMK=

  • Amsterdam/Schipol (EHAM)

    Taf: TAF EHAM 262245Z 2700/2806 01010KT 9999 BKN014 BECMG 2700/2703 04013KT 6000 OVC007 BECMG 2704/2706 9999 FEW014 SCT030 PROB40 TEMPO 2707/2713 BKN012 BECMG 2714/2717 02008KT BECMG 2721/2724 VRB02KT 4000 BR MIFG BECMG 2800/2803 1200 BCFG PROB30 2802/2806 0400 FZFG VV001=

    Metar: METAR EHAM 270025Z 03013KT 360V060 9999 BKN016 06/03 Q1025 BECMG BKN012=

  • Emmen (LSME)

    Taf: TAF LSME 261625Z 2617/2723 02003KT 9999 OVC020 PROB30 TEMPO 2617/2709 3500 -SN OVC014=

    Metar: METAR LSME 270020Z AUTO 01004KT 9999NDV OVC021 M00/M03 Q1017 RMK=

  • Friedrichshafen (EDNY)

    Taf: TAF EDNY 262300Z 2700/2724 01003KT 9999 OVC020 BECMG 2707/2710 03008KT=

    Metar: METAR EDNY 270020Z AUTO VRB02KT 9999 // OVC024/// M01/M04 Q1018=

  • Alpnach (LSMA)

    Taf: TAF LSMA 261625Z 2617/2723 VRB02KT 9999 OVC020 PROB30 TEMPO 2617/2709 -SN OVC014=

    Metar: METAR LSMA 270020Z AUTO 01007KT 330V040 9999NDV SCT020 OVC024 00/M04 Q1017 RMK=

  • Meiringen (LSMM)

    Taf: TAF LSMM 261625Z 2617/2723 09004KT 9999 OVC020 PROB30 TEMPO 2617/2712 3500 -SN BKN014=

    Metar: METAR LSMM 270020Z AUTO 09005KT 9999NDV OVC022 M02/M05 Q1016 RMK=

  • Nürnberg (EDDN)

    Taf: TAF EDDN 262300Z 2700/2724 VRB03KT 9999 OVC009 TEMPO 2700/2709 3500 -SN BECMG 2709/2711 04005KT BKN020=

    Metar: METAR EDDN 270020Z AUTO 31004KT 8000 OVC005 M02/M03 Q1019 REFZDZ=

  • Rouen (LFOP)

    Taf: TAF LFOP 262300Z NIL=

    Metar: METAR LFOP 270030Z AUTO 36010KT 9999 -RA FEW012 SCT025 BKN030 04/02 Q1026=

  • Evreux (LFOE)

    Taf: TAF LFOE 262000Z 2621/2721 03010KT 9999 BKN030 BECMG 2621/2623 OVC015 PROB40 TEMPO 2706/2709 BKN008 BECMG 2719/2721 OVC009=

    Metar: METAR LFOE 270030Z AUTO 01007KT 350V060 9999 FEW020 OVC038 03/02 Q1025 NOSIG=

  • Erfurt/Bindersleben (EDDE)

    Taf: TAF EDDE 262300Z 2700/2724 VRB03KT 5000 BR OVC003 TEMPO 2700/2708 0350 FZFG BKN001 PROB30 TEMPO 2700/2724 -FZDZ BECMG 2708/2711 03008KT OVC005 TEMPO 2708/2724 1200 -SN BKN003=

    Metar: METAR EDDE 270020Z AUTO 26003KT 1200 1000 R27/1800D BR BKN002 BKN005 M03/M03 Q1020=